User: anonymous   Login
Location: Clinton NY
(43.0598°N, 75.3602°W)
Time: 17:52:11
(UTC-04:00)
Language:

ISS - Orbit

View from above orbital plane
View from above orbital plane
View from above satellite
View from above satellite

Ground track
Ground track

The orbit data is extracted from the following two-line orbital elements,

1 25544U 98067A   16119.70660610  .00004226  00000-0  63184-4 0  9994
2 25544  51.6420 304.8560 0001919  80.5222 279.6511 15.54358942125347
Epoch (UTC): 28 April 2016 16:57:30
Eccentricity: 0.0001919
inclination: 51.6420°
perigee height: 403 km
apogee height: 405 km
right ascension of ascending node: 304.8560°
argument of perigee: 80.5222°
revolutions per day: 15.54358942
mean anomaly at epoch: 279.6511°
orbit number at epoch: 12534

The dashed part of the orbit path shows where the satellite is in the earth's shadow,  

DLR